Weather Roundup
Issued by NWS Springfield, MO

Home | Current Version | Previous Version | Text Only | Print | Product List | Glossary On
Versions: 1 2 3 4 5 6 7 8 9 10 11 12 13 14 15 16 17 18 19 20 21 22 23 24 25 26 27 28 29 30 31 32 33 34 35 36 37 38 39 40 41 42 43 44 45 46 47 48 49 50
000
NZUS99 KSGF 041159
HRRSGF

HOURLY WEATHER
NATIONAL WEATHER SERVICE SPRINGFIELD MO
700 AM CDT SAT JUL 04 2015

......SGF CWA......

CITY           SKY/WX    TMP DP  RH WIND       PRES   REMARKS
SPRINGFIELD    MOSUNNY   66  61  84 CALM      29.99R
6HR MIN TEMP:  65; 6HR MAX TEMP:  69;

JOPLIN         MOCLDY    68  66  93 CALM      29.99R FOG
6HR MIN TEMP:  67; 6HR MAX TEMP:  70;

WEST PLAINS    SUNNY     66  63  90 N3        30.01R FOG
6HR MIN TEMP:  64; 6HR MAX TEMP:  68;

ROLLA          SUNNY     63  60  90 CALM      29.99R
6HR MIN TEMP:  60; 6HR MAX TEMP:  65;

OSAGE BEACH    SUNNY     61  57  88 CALM      30.00R
BRANSON        MOSUNNY   64  64 100 CALM      30.01R

......SURROUNDING SGF CWA......

CITY           SKY/WX    TMP DP  RH WIND       PRES   REMARKS
CHANUTE        PTCLDY    65  62  90 CALM      29.99R
PARSONS        PTCLDY    67  65  93 CALM      29.99R
COFFEYVILLE    CLEAR     68  65  90 N6        29.98R
EMPORIA        CLEAR     58  57  97 SW3       30.00R FOG
SILOAM SPRINGS CLOUDY    66  63  88 E3          N/A  VSB 1/4
HARRISON AR    FOG       68  68 100 CALM      30.00R VSB<1/4
NEAR YELLVILLE MOSUNNY   68  66  94 CALM      29.96S

......KANSAS AND MISSOURI......

CITY           SKY/WX    TMP DP  RH WIND       PRES   REMARKS
KANSAS CTY INT SUNNY     63  59  87 NE3       30.00S
DOWNTOWN KC    SUNNY     64  62  93 CALM      30.00R
COLUMBIA       SUNNY     63  60  90 N3        30.01R
SEDALIA        SUNNY     63  60  90 CALM      30.02R
ST JOSEPH      MOSUNNY   59  58  96 CALM      30.00S FOG
ST LOUIS       SUNNY     69  65  86 CALM      30.00R FOG
SPIRIT OF STL  SUNNY     65  65 100 CALM      29.99R FOG
KIRKSVILLE     SUNNY     59  57  93 N3        30.01R FOG
WICHITA        PTCLDY    64  61  90 S3        29.98F
TOPEKA         PTCLDY    61  59  93 CALM      30.00R FOG
OLATHE         CLEAR     62  60  93 CALM      30.00R

......TENNESSEE......

CITY           SKY/WX    TMP DP  RH WIND       PRES   REMARKS
MEMPHIS        CLOUDY    73  70  90 SW6       29.97R
NASHVILLE      CLOUDY    72  71  97 CALM      29.99R

......ARKANSAS.......

CITY           SKY/WX    TMP DP  RH WIND       PRES   REMARKS
FAYETTEVILLE   FOG       65  65 100 CALM      29.99R VSB<1/4
FT SMITH       CLOUDY    70  68  93 SE3       29.96R FOG
LITTLE ROCK    CLOUDY    72  67  84 CALM      29.97R

......OKLAHOMA.......

CITY           SKY/WX    TMP DP  RH WIND       PRES   REMARKS
TULSA          PTCLDY    70  69  97 NW5       29.95R
PONCA CITY     CLEAR     66  64  93 NE5       29.97R FOG
MCALESTER      PTCLDY    71  68  90 N3        29.96R
OKLAHOMA CITY  PTCLDY    71  69  93 CALM      29.95S

......IOWA............

CITY           SKY/WX    TMP DP  RH WIND       PRES   REMARKS
DES MOINES     MOSUNNY   63  56  78 CALM      30.00R
QUAD CITIES    SUNNY     59  56  89 CALM      29.99R FOG

......ILLINOIS........

CITY           SKY/WX    TMP DP  RH WIND       PRES   REMARKS
QUINCY         SUNNY     62  60  93 NE3       29.99R FOG
CHICAGO        SUNNY     63  57  81 NW3       29.98R



USA.gov is the U.S. government's official web portal to all federal, state and local government web resources and services.